Погода в Борисовке

Украина / Запорожская область     46°47′07″N   36°24′32″E
темп.,
°C
ветер,
м/с
пор.,
м/с
влажн.,
%
обл.,
%
осадки,
мм/ч
давл.,
гПа
погр.,
м
2 июля, сб
сб200:00+21ссв611560 0.0 1014272
03:00+19ссв611640 0.0 1015270
06:00+18ссв711690 0.0 1016362
09:00+21св67460 0.0 10171070
12:00+24ссв67280 0.0 10181623
15:00+26ссв34330 0.0 10171188
18:00+25с56350 0.0 10171270
21:00+21ссв59470 0.0 1018357
3 июля, вс
вс300:00+18с58540 0.0 1019183
03:00+17с58650 0.0 1019170
06:00+17с59670 0.0 1019216
09:00+23ссв57461 0.0 10191375
12:00+26с34390 0.0 10181239
15:00+27ссз14360 0.0 10171575
18:00+25зюз354718 0.0 1016937
21:00+22зюз446796 0.0 101759
4 июля, пн
пн400:00+21ссв44545 0.0 101770
03:00+20ссв44560 0.0 101769
06:00+20с34560 0.0 101793
09:00+26с23470 0.0 1017789
12:00+28зюз244420 0.0 10161669
15:00+27ююз575029 0.0 1015794
18:00+26юз685763 0.0 1014238
21:00+25з576473 0.0 1014109
5 июля, вт
вт500:00+23ссв48590 0.0 1015127
03:00+22св47577 0.0 1015115
06:00+21св58611 0.0 1016200
09:00+26в56530 0.0 1017585
12:00+27вюв775121 0.0 10171279
15:00+27ююв55507 0.0 1016597
18:00+26ю224725 0.0 1016290
21:00+24ссз11520 0.0 101611
6 июля, ср
ср600:00+22ссв45550 0.0 101665
03:00+21св57520 0.0 1016150
06:00+21св56620 0.0 1017142
09:00+27в57470 0.0 1017668
12:00+27вюв67440 0.0 10171302
15:00+28юв57400 0.0 10161234
18:00+28ююв33400 0.0 1015355
21:00+24зсз22470 0.0 101511